Main page
METAR-TAF:

METAR-TAF

Airports :

Los Garzones Airport

Montería, Colombia

latitude: 08-49N, longitude: 075-51W, elevation: 20 m

Current weather observation

The report was made 54 minutes ago, at 21:00 UTC
Wind 5 kt from the West, varying between West/Southwest and West/Northwest
Temperature 30°C
Humidity 70%
Pressure 1007 hPa
Visibility 10 km or more
Few clouds at a height of 1500 ft

METAR: SKMR 182100Z 28005KT 240V300 9999 FEW015 30/24 Q1007

Time: 16:54 (21:54 UTC)


TAF: missing

Weather observations and forecasts of more than 4000 airports (METAR and TAF reports).

The available stations are represented by yellow and red dots on the map.

Hover mouse over dot to see the name of the station.

Then click to see weather observations and forecasts.

To change the map : click on the green buttons with a black cross to zoom in, on the green button with a dash to zoom out, or on the green arrows for adjacent maps.


METAR-TAF: